#timestamp,LO_Frequency,Hit,StdDev 
1681506015.5,286046999.5,N
1681506035.4,286046995.3,N
1681506055.2,286046999.5,N
1681506075.1,286046999.0,N
1681506076.0,286046999.0,N
1681506095.8,286046998.0,N
1681506115.6,286046995.7,N
1681506135.5,286046992.7,N
1681506155.3,286046990.1,N
1681506175.1,286046993.1,N
1681506195.9,286046996.8,N
1681506215.7,286047000.9,N
1681506235.6,286047004.4,N
1681506255.4,286047009.0,N
1681506275.2,286047005.3,N
1681506295.1,286047003.7,N
1681506296.0,286047003.7,N
1681506315.8,286047001.5,N
1681506335.7,286047001.8,N
1681506355.5,286047003.7,N
1681506375.3,286047005.4,N
1681506395.2,286047003.0,N
1681506415.9,286047002.5,N
1681506435.7,286047001.2,N
1681506455.6,286047000.6,N
1681506475.4,286046997.6,N
1681506495.2,286046995.8,N
1681506515.1,286046999.5,N
1681506516.0,286046999.5,N
1681506535.8,286047000.6,N
1681506555.7,286046998.6,N
1681506575.5,286046997.1,N
1681506595.3,286046997.2,N
1681506615.2,286046995.9,N
1681506635.0,286046994.1,N
1681506635.9,286046994.1,N
1681506655.8,286046990.2,N
1681506675.6,286046989.0,N
1681506695.4,286046998.0,N
1681506715.3,286047004.1,N
1681506735.1,286047009.0,N
1681506755.8,286047010.7,N
1681506775.7,286047010.1,N
1681506795.5,286047009.2,N
1681506815.4,286047007.5,N
1681506835.2,286047005.5,N
1681506855.0,286047001.9,N
1681506855.9,286047001.9,N
1681506875.8,286047001.6,N
1681506895.6,286047000.1,N
1681506915.4,286046996.9,N
1681506935.3,286046997.9,N
1681506985.2,286046995.2,E
1681506995.1,286046996.7,N
1681506996.0,286046996.7,P
1681507015.8,286046999.4,P
1681507035.6,286047003.2,N
1681507055.5,286047005.8,N
1681507075.3,286047003.9,N
1681507095.2,286047005.3,N
1681507115.9,286047003.2,N
1681507135.7,286047006.2,N
1681507155.6,286047014.0,Y
1681507175.4,286047010.2,P
1681507195.2,286047014.2,P
1681507215.1,286047015.0,P
1681507216.0,286047015.0,N
1681507235.8,286047014.2,N
1681507255.7,286047018.6,Y
1681507275.5,286047003.5,P
1681507295.3,286047000.3,N
1681507315.2,286047002.1,N
1681507335.0,286047003.6,N
1681507335.9,286047003.6,N
1681507355.8,286047009.5,N
1681507375.6,286047017.1,Y
1681507395.4,286047010.3,P
1681507415.3,286047006.5,N
1681507435.1,286047009.8,P
1681507455.8,286047012.2,Y
1681507475.7,286046996.9,P
1681507495.5,286046994.8,N
1681507515.4,286046992.5,N
1681507535.2,286046996.1,N
1681507555.0,286047003.9,N
1681507555.9,286047003.9,N
1681507575.8,286047009.2,N
1681507595.6,286047012.1,N
1681507615.4,286047015.5,N
1681507635.3,286047016.1,N
1681507655.1,286047015.6,N
1681507675.9,286047008.2,N
1681507695.7,286047004.9,N
1681507715.5,286047004.9,N
1681507735.4,286047002.8,N
1681507755.2,286046997.6,N
1681507775.1,286046992.3,N
1681507776.0,286046992.3,N
1681507795.8,286046991.0,N
1681507815.6,286046990.3,N
1681507835.5,286046993.5,N
1681507855.3,286046987.9,N
1681507875.1,286046986.8,N
1681507895.9,286046981.3,N
1681507915.7,286046984.4,N
1681507935.6,286046984.2,N
1681507955.4,286046984.7,N
1681507975.2,286046991.2,N
1681507995.1,286046990.7,N
1681507996.0,286046990.7,N
1681508015.8,286046995.9,N
1681508035.6,286046994.5,N
1681508055.5,286046991.2,N
1681508075.3,286046985.0,N
1681508095.2,286046977.7,N
1681508115.9,286046978.2,N
1681508135.7,286046974.1,N
1681508155.6,286046973.2,N
1681508175.4,286046970.9,N
1681508195.2,286046972.4,N
1681508215.1,286046971.1,N
1681508216.0,286046971.1,N
1681508235.8,286046974.7,N
1681508255.7,286046979.9,N
1681508275.5,286046977.5,N
1681508295.3,286046977.3,N
1681508315.2,286046978.9,N
1681508335.0,286046976.3,Y
1681508336.0,286046976.3,P
1681508355.8,286046994.6,N
1681508375.6,286046996.0,N
1681508395.5,286046993.6,N
1681508415.3,286046997.4,N
1681508435.1,286047004.0,N
1681508455.9,286047000.8,N
1681508475.7,286046997.9,N
1681508495.6,286046996.2,N
1681508515.4,286046997.3,N
1681508535.2,286046995.9,N
1681508555.1,286046994.3,N
1681508556.0,286046994.3,N
1681508575.8,286046992.2,N
1681508595.7,286046993.6,N
1681508615.5,286046992.4,N
1681508635.3,286046990.1,N
1681508655.2,286046989.1,N
1681508675.9,286046990.6,N
1681508695.7,286046994.9,N
1681508715.6,286046997.7,N
1681508735.4,286047007.0,N
1681508755.3,286047010.8,N
1681508775.1,286047004.6,N
1681508776.0,286047004.6,N
1681508795.8,286047005.9,N
1681508815.7,286047000.6,N
1681508835.5,286047009.1,N
1681508855.3,286047005.3,N
1681508875.2,286047005.5,N
1681508895.0,286047009.0,N
1681508895.9,286047009.0,N
1681508915.8,286047002.6,N
1681508935.6,286047002.2,N
1681508955.4,286047008.9,N
1681508975.3,286047010.5,N
1681508995.1,286047009.1,N
1681509015.9,286047012.1,N
1681509035.7,286047009.9,N
1681509055.5,286047015.4,N
1681509075.4,286047013.2,N
1681509095.2,286047015.1,N
1681509115.0,286047020.3,N
1681509115.9,286047020.3,N
1681509135.8,286047009.3,N
1681509155.6,286047004.9,N
1681509175.5,286047004.3,N
1681509195.3,286047002.4,N
1681509215.1,286046999.4,N
1681509235.9,286046996.8,N
1681509255.7,286046997.9,N
1681509275.6,286046996.9,N
1681509295.4,286047005.3,N
1681509315.2,286046998.7,N
1681509335.1,286046997.4,N
1681509336.0,286046997.4,N
1681509355.8,286046997.7,N
1681509375.7,286047002.3,N
1681509395.5,286046995.0,N
1681509415.3,286046994.4,N
1681509435.2,286046996.7,N
1681509455.9,286047002.8,N
1681509475.7,286047001.3,N
1681509495.6,286047002.8,N
1681509515.4,286047008.4,N
1681509535.3,286047010.6,N
1681509555.1,286047010.4,N
1681509556.0,286047010.4,N
1681509575.8,286047016.3,N
1681509595.7,286047019.8,N
